EZS5890 LICJ-LFSB

Flight info

Callsign EZS5890
Flight time 1h 45m
Altitude 36000
Route GIANO6R GIANO DCT RONAB DCT GIPIX DCT ABESI DCT UTAVO DCT ELMUR T718 TRA/N0378F180 T718 RIGVI DCT
Aircraft A320/M-SDE3FGHIRWY/LB1

Departure

Time 2026-04-29 15:57
Airport Falcone–Borsellino Airport (LICJ)

Arrival

Time 2026-04-29 17:42
Airport EuroAirport Basel–Mulhouse–Freiburg (LFSB)
Time Latitude Longitude Altitude Speed Heading
2026-04-29 15:21 38.18405 13.10413 50 ft 0 kts 67°
2026-04-29 15:52 38.18413 13.10437 50 ft 6 kts 67°
2026-04-29 15:52 38.18416 13.10492 53 ft 6 kts 115°
2026-04-29 15:53 38.18385 13.10500 53 ft 4 kts 200°
2026-04-29 15:53 38.18338 13.10474 51 ft 12 kts 214°
2026-04-29 15:53 38.18299 13.10387 51 ft 11 kts 240°
2026-04-29 15:53 38.18239 13.10368 51 ft 9 kts 185°
2026-04-29 15:54 38.18189 13.10290 53 ft 20 kts 247°
2026-04-29 15:54 38.18126 13.10102 51 ft 24 kts 248°
2026-04-29 15:54 38.18062 13.09914 53 ft 23 kts 246°
2026-04-29 15:54 38.17997 13.09718 52 ft 28 kts 247°
2026-04-29 15:55 38.17914 13.09474 51 ft 31 kts 246°
2026-04-29 15:55 38.17830 13.09221 53 ft 32 kts 246°
2026-04-29 15:55 38.17755 13.08999 53 ft 20 kts 246°
2026-04-29 15:55 38.17667 13.08882 51 ft 18 kts 217°
2026-04-29 15:56 38.17575 13.08793 53 ft 16 kts 217°
2026-04-29 15:56 38.17492 13.08774 53 ft 13 kts 122°
2026-04-29 15:56 38.17512 13.08890 53 ft 21 kts 66°
2026-04-29 15:56 38.17681 13.09390 53 ft 102 kts 66°
2026-04-29 15:57 38.18054 13.10496 71 ft 165 kts 66°
2026-04-29 15:57 38.18501 13.11854 845 ft 166 kts 68°
2026-04-29 15:57 38.18939 13.13251 1629 ft 176 kts 70°
2026-04-29 15:57 38.19410 13.14679 2227 ft 175 kts 70°
2026-04-29 15:58 38.19861 13.16106 2786 ft 174 kts 70°
2026-04-29 15:58 38.20318 13.17552 3250 ft 182 kts 69°
2026-04-29 15:58 38.20926 13.19079 3477 ft 207 kts 54°
2026-04-29 15:58 38.22111 13.20292 3663 ft 235 kts 25°
2026-04-29 15:59 38.23685 13.21092 3984 ft 259 kts 22°
2026-04-29 15:59 38.25445 13.21997 4493 ft 275 kts 23°
2026-04-29 15:59 38.27209 13.22920 5270 ft 280 kts 23°
2026-04-29 15:59 38.29050 13.23893 6085 ft 285 kts 23°
2026-04-29 16:00 38.30861 13.24856 6857 ft 288 kts 22°
2026-04-29 16:00 38.32728 13.25852 7628 ft 292 kts 22°
2026-04-29 16:00 38.34616 13.26859 8402 ft 296 kts 21°
2026-04-29 16:00 38.36526 13.27877 9181 ft 300 kts 21°
2026-04-29 16:01 38.38528 13.28647 9895 ft 303 kts
2026-04-29 16:01 38.40650 13.28540 10288 ft 314 kts 343°
2026-04-29 16:01 38.42690 13.27394 10481 ft 331 kts 321°
2026-04-29 16:01 38.44319 13.25252 10724 ft 343 kts 302°
2026-04-29 16:02 38.45657 13.22698 11299 ft 349 kts 302°
2026-04-29 16:02 38.47025 13.20119 11993 ft 352 kts 302°
2026-04-29 16:02 38.48414 13.17524 12695 ft 355 kts 303°
2026-04-29 16:02 38.49815 13.14915 13390 ft 358 kts 303°
2026-04-29 16:03 38.51229 13.12287 14052 ft 360 kts 303°
2026-04-29 16:03 38.52652 13.09639 14660 ft 363 kts 303°
2026-04-29 16:03 38.54083 13.06973 15261 ft 365 kts 303°
2026-04-29 16:03 38.55521 13.04285 15861 ft 368 kts 303°
2026-04-29 16:04 38.56966 13.01571 16440 ft 371 kts 303°
2026-04-29 16:04 38.58420 12.98832 17014 ft 374 kts 303°
2026-04-29 16:04 38.59888 12.96064 17598 ft 377 kts 303°
2026-04-29 16:04 38.61358 12.93283 18179 ft 380 kts 303°
2026-04-29 16:05 38.62843 12.90476 18691 ft 383 kts 303°
2026-04-29 16:05 38.64343 12.87644 19179 ft 386 kts 303°
2026-04-29 16:05 38.65857 12.84783 19641 ft 390 kts 303°
2026-04-29 16:05 38.67362 12.81933 20124 ft 393 kts 303°
2026-04-29 16:06 38.68901 12.79024 20607 ft 396 kts 303°
2026-04-29 16:06 38.70447 12.76095 21081 ft 399 kts 303°
2026-04-29 16:06 38.72009 12.73140 21529 ft 402 kts 303°
2026-04-29 16:06 38.73581 12.70168 21985 ft 405 kts 303°
2026-04-29 16:07 38.75162 12.67171 22428 ft 407 kts 302°
2026-04-29 16:07 38.76749 12.64152 22859 ft 410 kts 302°
2026-04-29 16:07 38.78349 12.61106 23282 ft 413 kts 302°
2026-04-29 16:07 38.79958 12.58042 23676 ft 415 kts 302°
2026-04-29 16:08 38.81576 12.54951 24020 ft 418 kts 302°
2026-04-29 16:08 38.83202 12.51846 24363 ft 419 kts 302°
2026-04-29 16:08 38.84874 12.48764 24696 ft 422 kts 307°
2026-04-29 16:08 38.86866 12.46033 25017 ft 427 kts 316°
2026-04-29 16:09 38.89250 12.43738 25336 ft 431 kts 326°
2026-04-29 16:09 38.91938 12.41992 25653 ft 436 kts 335°
2026-04-29 16:09 38.94736 12.40473 25978 ft 437 kts 334°
2026-04-29 16:09 38.97540 12.38941 26283 ft 439 kts 334°
2026-04-29 16:10 39.00355 12.37393 26582 ft 441 kts 334°
2026-04-29 16:10 39.03183 12.35832 26876 ft 443 kts 334°
2026-04-29 16:10 39.06023 12.34264 27162 ft 445 kts 334°
2026-04-29 16:10 39.08872 12.32692 27442 ft 447 kts 334°
2026-04-29 16:11 39.11743 12.31109 27716 ft 449 kts 334°
2026-04-29 16:11 39.14623 12.29520 27979 ft 451 kts 334°
2026-04-29 16:11 39.17515 12.27927 28258 ft 452 kts 334°
2026-04-29 16:11 39.20414 12.26330 28522 ft 454 kts 334°
2026-04-29 16:12 39.23318 12.24722 28768 ft 455 kts 334°
2026-04-29 16:12 39.25245 12.23652 28918 ft 456 kts 334°
2026-04-29 16:12 39.29154 12.21479 29237 ft 458 kts 334°
2026-04-29 16:12 39.32089 12.19848 29443 ft 460 kts 334°
2026-04-29 16:13 39.35025 12.18219 29748 ft 459 kts 334°
2026-04-29 16:13 39.37955 12.16595 30063 ft 458 kts 334°
2026-04-29 16:13 39.40881 12.14969 30367 ft 456 kts 334°
2026-04-29 16:13 39.43789 12.13350 30678 ft 454 kts 334°
2026-04-29 16:14 39.46652 12.11754 30957 ft 453 kts 333°
2026-04-29 16:14 39.49541 12.10141 31233 ft 452 kts 333°
2026-04-29 16:14 39.52426 12.08528 31505 ft 451 kts 333°
2026-04-29 16:14 39.55305 12.06917 31774 ft 450 kts 333°
2026-04-29 16:15 39.58185 12.05302 32042 ft 450 kts 333°
2026-04-29 16:15 39.61054 12.03692 32301 ft 449 kts 333°
2026-04-29 16:15 39.63921 12.02084 32545 ft 449 kts 333°
2026-04-29 16:15 39.66799 12.00470 32794 ft 449 kts 333°
2026-04-29 16:16 39.69661 11.98865 33048 ft 449 kts 333°
2026-04-29 16:16 39.72528 11.97256 33320 ft 448 kts 333°
2026-04-29 16:16 39.75385 11.95655 33570 ft 447 kts 333°
2026-04-29 16:16 39.78237 11.94055 33829 ft 447 kts 333°
2026-04-29 16:17 39.81091 11.92447 34087 ft 446 kts 333°
2026-04-29 16:17 39.83933 11.90844 34317 ft 445 kts 332°
2026-04-29 16:17 39.86787 11.89263 34564 ft 445 kts 335°
2026-04-29 16:17 39.89743 11.88021 34813 ft 446 kts 339°
2026-04-29 16:18 39.92705 11.86853 35041 ft 445 kts 339°
2026-04-29 16:18 39.95669 11.85687 35257 ft 444 kts 339°
2026-04-29 16:18 39.98589 11.84540 35461 ft 443 kts 339°
2026-04-29 16:18 40.01537 11.83381 35662 ft 442 kts 339°
2026-04-29 16:19 40.04481 11.82222 35858 ft 441 kts 339°
2026-04-29 16:19 40.07425 11.81061 36002 ft 442 kts 339°
2026-04-29 16:19 40.10369 11.79899 36031 ft 442 kts 339°
2026-04-29 16:20 40.16263 11.77562 36030 ft 442 kts 339°
2026-04-29 16:20 40.22156 11.75218 36030 ft 442 kts 339°
2026-04-29 16:21 40.28014 11.72886 36027 ft 442 kts 339°
2026-04-29 16:21 40.33905 11.70542 36036 ft 442 kts 339°
2026-04-29 16:22 40.39795 11.68199 36035 ft 442 kts 339°
2026-04-29 16:22 40.45686 11.65845 36032 ft 443 kts 339°
2026-04-29 16:23 40.51583 11.63486 36030 ft 443 kts 339°
2026-04-29 16:23 40.57476 11.61119 36036 ft 443 kts 339°
2026-04-29 16:24 40.63373 11.58748 36037 ft 443 kts 339°
2026-04-29 16:24 40.69270 11.56376 36036 ft 443 kts 339°
2026-04-29 16:25 40.75162 11.53998 36034 ft 443 kts 339°
2026-04-29 16:25 40.81057 11.51618 36049 ft 443 kts 339°
2026-04-29 16:26 40.86948 11.49238 36046 ft 443 kts 339°
2026-04-29 16:26 40.92808 11.46857 36044 ft 442 kts 339°
2026-04-29 16:27 40.98690 11.44465 36036 ft 442 kts 339°
2026-04-29 16:27 41.04579 11.42067 36041 ft 442 kts 339°
2026-04-29 16:28 41.10460 11.39670 36037 ft 442 kts 339°
2026-04-29 16:28 41.16346 11.37265 36037 ft 442 kts 339°
2026-04-29 16:29 41.22231 11.34859 36046 ft 442 kts 340°
2026-04-29 16:29 41.28105 11.32448 36044 ft 442 kts 339°
2026-04-29 16:30 41.33935 11.30055 36053 ft 441 kts 340°
2026-04-29 16:30 41.39813 11.27646 36037 ft 442 kts 340°
2026-04-29 16:31 41.45685 11.25220 36039 ft 442 kts 339°
2026-04-29 16:31 41.51558 11.22783 36037 ft 442 kts 339°
2026-04-29 16:32 41.57434 11.20352 36036 ft 442 kts 340°
2026-04-29 16:32 41.63311 11.17919 36036 ft 442 kts 339°
2026-04-29 16:33 41.72107 11.14251 36051 ft 441 kts 339°
2026-04-29 16:33 41.77967 11.11813 36051 ft 441 kts 340°
2026-04-29 16:34 41.83786 11.09398 36051 ft 440 kts 340°
2026-04-29 16:34 41.88686 11.07348 36053 ft 440 kts 339°
2026-04-29 16:35 41.94529 11.04890 36052 ft 440 kts 339°
2026-04-29 16:35 42.00375 11.02432 36050 ft 440 kts 339°
2026-04-29 16:36 42.06172 10.99991 36048 ft 440 kts 339°
2026-04-29 16:36 42.12005 10.97523 36056 ft 439 kts 339°
2026-04-29 16:37 42.17840 10.95050 36053 ft 439 kts 339°
2026-04-29 16:37 42.22695 10.93006 36051 ft 439 kts 339°
2026-04-29 16:38 42.29512 10.90134 36051 ft 439 kts 339°
2026-04-29 16:38 42.35339 10.87656 36051 ft 439 kts 339°
2026-04-29 16:39 42.41126 10.85182 36051 ft 439 kts 339°
2026-04-29 16:39 42.46951 10.82701 36050 ft 439 kts 339°
2026-04-29 16:40 42.52778 10.80209 36051 ft 438 kts 339°
2026-04-29 16:40 42.58595 10.77723 36055 ft 438 kts 339°
2026-04-29 16:41 42.64398 10.75239 36057 ft 437 kts 339°
2026-04-29 16:41 42.70194 10.72746 36057 ft 437 kts 339°
2026-04-29 16:42 42.75982 10.70249 36063 ft 436 kts 339°
2026-04-29 16:42 42.81774 10.67751 36060 ft 436 kts 339°
2026-04-29 16:43 42.87552 10.65251 36061 ft 436 kts 339°
2026-04-29 16:43 42.93293 10.62765 36061 ft 436 kts 339°
2026-04-29 16:44 42.99071 10.60256 36061 ft 435 kts 339°
2026-04-29 16:44 43.04842 10.57748 36065 ft 435 kts 339°
2026-04-29 16:45 43.10604 10.55238 36055 ft 435 kts 339°
2026-04-29 16:45 43.16374 10.52720 36064 ft 435 kts 339°
2026-04-29 16:46 43.22135 10.50201 36063 ft 434 kts 339°
2026-04-29 16:46 43.27889 10.47679 36063 ft 434 kts 339°
2026-04-29 16:47 43.33606 10.45164 36063 ft 434 kts 339°
2026-04-29 16:47 43.39355 10.42637 36065 ft 434 kts 339°
2026-04-29 16:48 43.45098 10.40102 36059 ft 433 kts 339°
2026-04-29 16:48 43.50836 10.37562 36065 ft 433 kts 339°
2026-04-29 16:49 43.56567 10.35031 36070 ft 433 kts 339°
2026-04-29 16:49 43.62296 10.32496 36053 ft 432 kts 339°
2026-04-29 16:50 43.68014 10.29943 36072 ft 432 kts 339°
2026-04-29 16:50 43.73730 10.27399 36053 ft 432 kts 339°
2026-04-29 16:51 43.79441 10.24856 36072 ft 431 kts 339°
2026-04-29 16:51 43.85151 10.22305 36076 ft 430 kts 339°
2026-04-29 16:52 43.90850 10.19753 36058 ft 430 kts 339°
2026-04-29 16:52 43.96509 10.17210 36061 ft 430 kts 339°
2026-04-29 16:53 44.02202 10.14643 36066 ft 430 kts 339°
2026-04-29 16:53 44.07888 10.12060 36050 ft 429 kts 338°
2026-04-29 16:54 44.13514 10.09295 36050 ft 428 kts 337°
2026-04-29 16:54 44.19104 10.06437 36059 ft 428 kts 337°
2026-04-29 16:55 44.24702 10.03593 36062 ft 428 kts 337°
2026-04-29 16:55 44.30303 10.00788 36095 ft 427 kts 337°
2026-04-29 16:56 44.35900 9.97985 36062 ft 427 kts 337°
2026-04-29 16:56 44.41500 9.95163 36067 ft 427 kts 337°
2026-04-29 16:57 44.47089 9.92331 36066 ft 427 kts 337°
2026-04-29 16:57 44.52676 9.89499 36065 ft 427 kts 337°
2026-04-29 16:58 44.58265 9.86674 36082 ft 427 kts 337°
2026-04-29 16:58 44.63818 9.83864 36047 ft 427 kts 337°
2026-04-29 16:59 44.69406 9.81024 36047 ft 427 kts 337°
2026-04-29 16:59 44.74989 9.78172 36047 ft 427 kts 337°
2026-04-29 17:00 44.80609 9.75306 36056 ft 427 kts 337°
2026-04-29 17:00 44.86150 9.72472 36052 ft 426 kts 337°
2026-04-29 17:01 44.91717 9.69607 36048 ft 426 kts 336°
2026-04-29 17:01 44.97277 9.66738 36048 ft 425 kts 337°
2026-04-29 17:02 45.02839 9.63880 36058 ft 425 kts 337°
2026-04-29 17:02 45.08393 9.61023 36051 ft 424 kts 336°
2026-04-29 17:03 45.13838 9.58205 36052 ft 424 kts 336°
2026-04-29 17:03 45.19383 9.55324 36062 ft 424 kts 336°
2026-04-29 17:04 45.24917 9.52455 36075 ft 423 kts 336°
2026-04-29 17:04 45.30446 9.49581 36089 ft 423 kts 336°
2026-04-29 17:05 45.35979 9.46688 36103 ft 423 kts 336°
2026-04-29 17:05 45.41463 9.43824 36126 ft 422 kts 336°
2026-04-29 17:06 45.46984 9.40936 36130 ft 422 kts 336°
2026-04-29 17:06 45.52498 9.38030 36129 ft 422 kts 336°
2026-04-29 17:07 45.57078 9.35616 36063 ft 421 kts 336°
2026-04-29 17:07 45.63509 9.32233 36087 ft 421 kts 336°
2026-04-29 17:08 45.68968 9.29357 36085 ft 420 kts 336°
2026-04-29 17:08 45.74476 9.26444 36092 ft 420 kts 336°
2026-04-29 17:09 45.79931 9.23545 36109 ft 419 kts 336°
2026-04-29 17:09 45.85400 9.20645 36096 ft 419 kts 336°
2026-04-29 17:10 45.90864 9.17735 36087 ft 419 kts 336°
2026-04-29 17:10 45.96328 9.14813 36079 ft 418 kts 336°
2026-04-29 17:11 46.01785 9.11899 36085 ft 418 kts 336°
2026-04-29 17:11 46.07242 9.08984 36083 ft 417 kts 336°
2026-04-29 17:12 46.12681 9.06055 36104 ft 417 kts 336°
2026-04-29 17:12 46.17319 9.04138 36097 ft 421 kts 348°
2026-04-29 17:13 46.24128 9.03198 36112 ft 423 kts 350°
2026-04-29 17:13 46.29997 9.02406 36110 ft 423 kts 350°
2026-04-29 17:14 46.35865 9.01613 36105 ft 423 kts 350°
2026-04-29 17:14 46.41736 9.00831 36127 ft 423 kts 350°
2026-04-29 17:15 46.47597 9.00050 36131 ft 423 kts 350°
2026-04-29 17:15 46.53458 8.99246 36130 ft 423 kts 350°
2026-04-29 17:16 46.59316 8.98452 36135 ft 423 kts 350°
2026-04-29 17:16 46.65176 8.97665 36155 ft 423 kts 349°
2026-04-29 17:17 46.71037 8.96872 36157 ft 423 kts 349°
2026-04-29 17:17 46.76903 8.96075 36128 ft 422 kts 350°
2026-04-29 17:18 46.82762 8.95280 36139 ft 423 kts 349°
2026-04-29 17:18 46.88621 8.94479 36164 ft 423 kts 349°
2026-04-29 17:19 46.93482 8.93807 36162 ft 422 kts 349°
2026-04-29 17:19 47.00329 8.92867 36152 ft 422 kts 349°
2026-04-29 17:20 47.05196 8.92199 36169 ft 422 kts 349°
2026-04-29 17:20 47.11049 8.91392 36159 ft 422 kts 349°
2026-04-29 17:21 47.16695 8.89533 36155 ft 411 kts 333°
2026-04-29 17:21 47.21665 8.85530 36148 ft 406 kts 326°
2026-04-29 17:22 47.26524 8.81270 36171 ft 406 kts 326°
2026-04-29 17:22 47.31377 8.77006 36158 ft 406 kts 326°
2026-04-29 17:23 47.33807 8.74868 35952 ft 406 kts 326°
2026-04-29 17:23 47.36230 8.72735 35569 ft 406 kts 326°
2026-04-29 17:23 47.38666 8.70592 34779 ft 408 kts 325°
2026-04-29 17:23 47.41104 8.68443 33957 ft 408 kts 324°
2026-04-29 17:24 47.43539 8.66293 33045 ft 409 kts 324°
2026-04-29 17:24 47.45983 8.64130 32156 ft 409 kts 324°
2026-04-29 17:24 47.48432 8.61961 31336 ft 411 kts 325°
2026-04-29 17:24 47.50886 8.59785 30400 ft 413 kts 325°
2026-04-29 17:25 47.53366 8.57583 29394 ft 416 kts 326°
2026-04-29 17:25 47.55811 8.55416 28936 ft 406 kts 326°
2026-04-29 17:25 47.58221 8.53280 28313 ft 401 kts 326°
2026-04-29 17:25 47.60598 8.51166 27707 ft 396 kts 327°
2026-04-29 17:26 47.62944 8.49074 27122 ft 392 kts 327°
2026-04-29 17:26 47.65271 8.46994 26542 ft 389 kts 327°
2026-04-29 17:26 47.67522 8.44811 25973 ft 384 kts 321°
2026-04-29 17:26 47.69503 8.42172 25378 ft 382 kts 313°
2026-04-29 17:27 47.71168 8.39106 24774 ft 381 kts 307°
2026-04-29 17:27 47.72680 8.35941 24203 ft 381 kts 308°
2026-04-29 17:27 47.74222 8.32735 23603 ft 381 kts 308°
2026-04-29 17:27 47.75768 8.29533 22989 ft 380 kts 308°
2026-04-29 17:28 47.77305 8.26346 22451 ft 378 kts 308°
2026-04-29 17:28 47.78830 8.23179 21914 ft 376 kts 308°
2026-04-29 17:28 47.80344 8.20031 21426 ft 373 kts 308°
2026-04-29 17:28 47.81846 8.16896 20936 ft 370 kts 308°
2026-04-29 17:29 47.83328 8.13794 20475 ft 367 kts 308°
2026-04-29 17:29 47.84800 8.10712 20016 ft 364 kts 308°
2026-04-29 17:29 47.86259 8.07653 19564 ft 361 kts 308°
2026-04-29 17:29 47.87712 8.04607 19111 ft 359 kts 308°
2026-04-29 17:30 47.89154 8.01578 18658 ft 357 kts 308°
2026-04-29 17:30 47.90587 7.98562 18164 ft 356 kts 308°
2026-04-29 17:30 47.92013 7.95554 17677 ft 354 kts 308°
2026-04-29 17:30 47.93425 7.92574 17217 ft 351 kts 308°
2026-04-29 17:31 47.94833 7.89601 16750 ft 349 kts 308°
2026-04-29 17:31 47.96230 7.86645 16271 ft 348 kts 309°
2026-04-29 17:31 47.97620 7.83697 15809 ft 347 kts 309°
2026-04-29 17:31 47.99006 7.80756 15310 ft 346 kts 308°
2026-04-29 17:32 48.00388 7.77824 14832 ft 345 kts 308°
2026-04-29 17:32 48.01768 7.74890 14343 ft 344 kts 308°
2026-04-29 17:32 48.03143 7.71956 13842 ft 344 kts 308°
2026-04-29 17:32 48.04511 7.69034 13320 ft 342 kts 307°
2026-04-29 17:33 48.05880 7.66114 12682 ft 344 kts 307°
2026-04-29 17:33 48.07263 7.63175 12012 ft 347 kts 307°
2026-04-29 17:33 48.08457 7.60025 11349 ft 353 kts 291°
2026-04-29 17:33 48.08828 7.56381 10728 ft 359 kts 267°
2026-04-29 17:34 48.08244 7.52828 10585 ft 347 kts 245°
2026-04-29 17:34 48.06954 7.49948 10460 ft 333 kts 224°
2026-04-29 17:34 48.05109 7.47952 10330 ft 317 kts 202°
2026-04-29 17:34 48.03084 7.47017 10192 ft 304 kts 189°
2026-04-29 17:35 47.99631 7.45880 9562 ft 306 kts 191°
2026-04-29 17:35 47.96920 7.44980 9005 ft 297 kts 190°
2026-04-29 17:35 47.94915 7.44314 8343 ft 293 kts 190°
2026-04-29 17:36 47.92937 7.43658 7672 ft 290 kts 189°
2026-04-29 17:36 47.90977 7.43013 6993 ft 288 kts 189°
2026-04-29 17:36 47.89031 7.42374 6339 ft 284 kts 189°
2026-04-29 17:36 47.87095 7.41741 5583 ft 285 kts 189°
2026-04-29 17:37 47.85204 7.41121 5231 ft 269 kts 189°
2026-04-29 17:37 47.83446 7.40539 5080 ft 251 kts 189°
2026-04-29 17:37 47.81774 7.39984 4950 ft 241 kts 188°
2026-04-29 17:37 47.80146 7.39452 4815 ft 238 kts 186°
2026-04-29 17:38 47.78550 7.39443 4464 ft 229 kts 163°
2026-04-29 17:38 47.77089 7.40264 4174 ft 223 kts 150°
2026-04-29 17:38 47.75698 7.41244 3863 ft 217 kts 150°
2026-04-29 17:38 47.74358 7.42186 3593 ft 209 kts 149°
2026-04-29 17:39 47.73069 7.43089 3333 ft 201 kts 149°
2026-04-29 17:39 47.71841 7.43947 3081 ft 187 kts 149°
2026-04-29 17:39 47.70721 7.44729 2823 ft 170 kts 149°
2026-04-29 17:39 47.69687 7.45452 2606 ft 158 kts 149°
2026-04-29 17:40 47.68735 7.46118 2420 ft 146 kts 149°
2026-04-29 17:40 47.67837 7.46747 2226 ft 140 kts 149°
2026-04-29 17:40 47.66960 7.47361 2046 ft 138 kts 149°
2026-04-29 17:40 47.66093 7.47967 1857 ft 137 kts 149°
2026-04-29 17:41 47.65235 7.48566 1684 ft 136 kts 151°
2026-04-29 17:41 47.64381 7.49163 1482 ft 139 kts 147°
2026-04-29 17:41 47.63515 7.49767 1301 ft 135 kts 152°
2026-04-29 17:41 47.62669 7.50356 1102 ft 133 kts 150°
2026-04-29 17:42 47.61827 7.50945 926 ft 134 kts 149°
2026-04-29 17:42 47.61037 7.51501 872 ft 111 kts 154°
2026-04-29 17:42 47.60490 7.51879 876 ft 62 kts 155°
2026-04-29 17:42 47.60238 7.52054 881 ft 18 kts 155°
2026-04-29 17:43 47.60130 7.52135 881 ft 13 kts 143°
2026-04-29 17:43 47.60133 7.52257 881 ft 14 kts 66°
2026-04-29 17:43 47.60147 7.52397 879 ft 15 kts 122°
2026-04-29 17:43 47.60053 7.52477 879 ft 17 kts 155°
2026-04-29 17:44 47.59943 7.52553 879 ft 18 kts 154°
2026-04-29 17:44 47.59825 7.52636 879 ft 20 kts 155°
2026-04-29 17:44 47.59698 7.52722 880 ft 21 kts 155°
2026-04-29 17:44 47.59614 7.52809 880 ft 14 kts 102°
2026-04-29 17:45 47.59651 7.52948 879 ft 16 kts 65°
2026-04-29 17:45 47.59721 7.53063 879 ft 17 kts
2026-04-29 17:45 47.59813 7.53080 879 ft 8 kts
2026-04-29 17:45 47.59848 7.53103 879 ft 4 kts 31°
2026-04-29 17:46 47.59860 7.53115 879 ft 1 kts 32°
2026-04-29 17:46 47.59862 7.53116 879 ft 0 kts 32°
2026-04-29 17:52 47.59861 7.53116 879 ft 0 kts 32°